Renton, WA
on Thursday, November 22, 2012

Thursday
Previous Day Next Day
Daily Summary
 ActualAverage (KSEA)Record (KSEA)
Temperature
Mean Temperature °F / °C 44°F / 7°C  
Max Temperature 48°F / 9°C 49°F / 9°C 58°F / 14°C (1954)
Min Temperature 37°F / 3°C 39°F / 4°C 14°F / -10°C (1985)
Degree Days
Heating Degree Days 22 21  
Month to date heating degree days 411  
Since 1 July heating degree days 1008  
Cooling Degree Days 0 0  
Month to date cooling degree days 0  
Year to date cooling degree days 189  
Moisture
Dew Point 37°F / 3°C   
Average Humidity 79    
Maximum Humidity 89    
Minimum Humidity 66    
Precipitation
Precipitation 0.00 in / 0.00 cm 0.22 in / 5.59 cm 1.76 in / 4.47 cm (2011)
Month to date precipitation 4.80  
Year to date precipitation 30.37  
Snow
Snow 0.00 in / 0.00 cm in / cm 2.50 in / 6.35 cm (2010)
Month to date snowfall  
Since 1 July snowfall  
Snow Depth in / cm   
Wind
Wind Speed 2 mph / 3 km/h   
Max Wind Speed 7 mph / 11 km/h   
Max Gust Speed mph / km/h   
Visibility 10 miles / 16 kilometers   
Events Rain   

Key: T is trace of precipitation, MM is missing value
Source: NWS Daily Summary
Time(PST)TemperatureDew PointHumidity Pressure Visibility Wind DirectionWind SpeedGust SpeedPrecipitationEvents Conditions
12:53 AM 41.0°F / 5.0°C 37.0°F / 2.8°C 86% 30.32 in / 1026.7 hPa 10.0 miles / 16.1 kilometers SE 3.5 mph / 5.6 km/h - N/A   Clear
1:53 AM 39.9°F / 4.4°C 36.0°F / 2.2°C 86% 30.34 in / 1027.3 hPa 10.0 miles / 16.1 kilometers Calm Calm - N/A   Clear
2:53 AM 39.0°F / 3.9°C 35.1°F / 1.7°C 86% 30.35 in / 1027.7 hPa 10.0 miles / 16.1 kilometers Calm Calm - N/A   Clear
3:53 AM 39.0°F / 3.9°C 35.1°F / 1.7°C 86% 30.36 in / 1028.1 hPa 10.0 miles / 16.1 kilometers Calm Calm - N/A   Mostly Cloudy
4:53 AM 39.0°F / 3.9°C 35.1°F / 1.7°C 86% 30.38 in / 1028.5 hPa 10.0 miles / 16.1 kilometers Calm Calm - N/A   Overcast
5:53 AM 39.0°F / 3.9°C 36.0°F / 2.2°C 89% 30.38 in / 1028.8 hPa 10.0 miles / 16.1 kilometers ESE 3.5 mph / 5.6 km/h - N/A   Scattered Clouds
6:53 AM 37.9°F / 3.3°C 35.1°F / 1.7°C 89% 30.39 in / 1028.9 hPa 10.0 miles / 16.1 kilometers East 3.5 mph / 5.6 km/h - N/A   Clear
7:53 AM 37.9°F / 3.3°C 35.1°F / 1.7°C 89% 30.38 in / 1028.5 hPa 10.0 miles / 16.1 kilometers South 3.5 mph / 5.6 km/h - N/A   Clear
8:53 AM 39.0°F / 3.9°C 36.0°F / 2.2°C 89% 30.38 in / 1028.8 hPa 10.0 miles / 16.1 kilometers SSE 4.6 mph / 7.4 km/h - N/A   Mostly Cloudy
9:53 AM 41.0°F / 5.0°C 36.0°F / 2.2°C 82% 30.38 in / 1028.6 hPa 10.0 miles / 16.1 kilometers Calm Calm - N/A   Scattered Clouds
10:53 AM 43.0°F / 6.1°C 37.0°F / 2.8°C 80% 30.38 in / 1028.5 hPa 10.0 miles / 16.1 kilometers Calm Calm - N/A   Overcast
11:53 AM 45.0°F / 7.2°C 36.0°F / 2.2°C 71% 30.36 in / 1027.9 hPa 10.0 miles / 16.1 kilometers Calm Calm - N/A   Overcast
12:53 PM 46.0°F / 7.8°C 37.9°F / 3.3°C 73% 30.32 in / 1026.7 hPa 10.0 miles / 16.1 kilometers Calm Calm - N/A   Overcast
1:53 PM 46.9°F / 8.3°C 39.9°F / 4.4°C 77% 30.32 in / 1026.5 hPa 10.0 miles / 16.1 kilometers NNW 3.5 mph / 5.6 km/h - N/A   Mostly Cloudy
2:53 PM 48.0°F / 8.9°C 39.9°F / 4.4°C 74% 30.31 in / 1026.4 hPa 10.0 miles / 16.1 kilometers NW 3.5 mph / 5.6 km/h - N/A   Scattered Clouds
3:53 PM 48.9°F / 9.4°C 41.0°F / 5.0°C 74% 30.31 in / 1026.2 hPa 10.0 miles / 16.1 kilometers Calm Calm - N/A   Overcast
4:53 PM 48.0°F / 8.9°C 41.0°F / 5.0°C 77% 30.30 in / 1025.9 hPa 10.0 miles / 16.1 kilometers Calm Calm - N/A   Overcast
5:53 PM 48.0°F / 8.9°C 39.9°F / 4.4°C 74% 30.27 in / 1025.0 hPa 10.0 miles / 16.1 kilometers Calm Calm - N/A   Overcast
6:53 PM 48.0°F / 8.9°C 37.0°F / 2.8°C 66% 30.26 in / 1024.6 hPa 10.0 miles / 16.1 kilometers Calm Calm - N/A   Mostly Cloudy
7:53 PM 48.0°F / 8.9°C 37.0°F / 2.8°C 66% 30.24 in / 1023.8 hPa 10.0 miles / 16.1 kilometers SSE 4.6 mph / 7.4 km/h - N/A   Mostly Cloudy
8:53 PM 48.0°F / 8.9°C 37.9°F / 3.3°C 68% 30.22 in / 1023.2 hPa 10.0 miles / 16.1 kilometers South 5.8 mph / 9.3 km/h - N/A   Mostly Cloudy
9:53 PM 48.0°F / 8.9°C 39.0°F / 3.9°C 71% 30.24 in / 1024.0 hPa 10.0 miles / 16.1 kilometers SSE 6.9 mph / 11.1 km/h - N/A   Mostly Cloudy
10:53 PM 46.9°F / 8.3°C 39.0°F / 3.9°C 74% 30.24 in / 1023.8 hPa 10.0 miles / 16.1 kilometers South 4.6 mph / 7.4 km/h - N/A   Overcast
11:53 PM 46.9°F / 8.3°C 41.0°F / 5.0°C 80% 30.25 in / 1024.2 hPa 9.0 miles / 14.5 kilometers SSE 3.5 mph / 5.6 km/h - 0.00 in / 0.0 cm Rain Light Rain
Moon Phase
Nov. 22 Nov. 28 Dec. 06 Dec. 13 Dec. 20
Sunrise:07:24 AM (PST) Moon Rise:01:32 PM (PST)11/22
Sunset:04:25 PM (PST) Moon Set:01:29 AM (PST)11/22

Copyright © 2014 The Weather Underground, Inc.